2022-050B

Last updated on Wed Jun 01 2022 00:02:03 GMT+0000 (Coordinated Universal Time)

1 52510U 22050B 22150.70386563 .28512381 83776-5 33163-3 0 9995 2 52510 41.4537 317.2553 0009333 298.8573 128.5828 16.49408938 3341

Satellite not in orbit